sat.trackr.live / text

‹ back to catalog

STARLINK-11302 [DTC]

NORAD 61204 · 2024-171E

PAYLOAD ACTIVE UNKNOWN

§ Identity

Operator
Country
US
Launch date
2024-09-20
Launch site
AFWTR
Launch vehicle
Mass (kg)
RCS (m²)

Purposes: comms

External: N2YO · Heavens-Above · Gunter

§ Orbital elements

Epoch: 2026-09-21T02:51:19.198080Z

Period
91.74 min
Inclination
53.1581°
Eccentricity
0.0001187
Mean motion
15.69706888 rev/d
Perigee alt
358.9 km
Apogee alt
360.5 km
Semi-major
6,737.9 km
B*
-2.0874e-6
RAAN
292.8255°
Arg perigee
77.8171°
Mean anomaly
282.2979°
Rev number
11,509

§ Raw data

STARLINK-11302 [DTC]1 61204U 24171E   26264.11897220 -.00000842  00000+0 -20874-5 0  99992 61204  53.1581 292.8255 0001187  77.8171 282.2979 15.69706888115092

JSON: /api/v1/satellites/61204 · /tle

For live sub-satellite position, see the globe view (requires WebGL).

§ Visibility from observer

Set your observer location to see the next 7 days of passes ≥ 10°. The values pass through the URL so the page stays shareable.

No JS? Fill the form by hand. The geolocation button needs JavaScript.